| time (UTC) | temp F | wind direction | speed MPH | gust MPH | rain 1hr in | rain 24hr in | rain mn in | humidity % | barometer mb |
| 20260831064532 | 61 | 155 | 5.0 | 10.0 | 0.03 | 0.25 | 0.23 | 98 | 1003.8 |
| 20260831063532 | 61 | 151 | 6.0 | 12.0 | 0.03 | 0.25 | 0.23 | 98 | 1003.9 |
| 20260831062531 | 61 | 145 | 5.0 | 11.0 | 0.03 | 0.24 | 0.23 | 98 | 1003.9 |
| 20260831061528 | 61 | 135 | 5.0 | 9.0 | 0.03 | 0.24 | 0.22 | 98 | 1003.9 |
| 20260831060527 | 61 | 134 | 5.0 | 10.0 | 0.02 | 0.23 | 0.21 | 98 | 1004.0 |
| 20260831055526 | 61 | 138 | 5.0 | 10.0 | 0.01 | 0.22 | 0.20 | 98 | 1004.1 |
| 20260831054546 | 61 | 138 | 6.0 | 11.0 | 0.04 | 0.22 | 0.20 | 98 | 1004.1 |
| 20260831053525 | 61 | 144 | 6.0 | 12.0 | 0.08 | 0.22 | 0.20 | 98 | 1004.2 |
| 20260831052526 | 61 | 139 | 6.0 | 12.0 | 0.12 | 0.22 | 0.20 | 98 | 1004.2 |
| 20260831051542 | 61 | 137 | 5.0 | 10.0 | 0.16 | 0.22 | 0.20 | 98 | 1004.3 |
| 20260831050521 | 61 | 136 | 6.0 | 10.0 | 0.16 | 0.22 | 0.20 | 98 | 1004.3 |
| 20260831045521 | 60 | 125 | 6.0 | 12.0 | 0.16 | 0.21 | 0.19 | 98 | 1004.4 |
| 20260831044539 | 60 | 118 | 5.0 | 12.0 | 0.13 | 0.18 | 0.16 | 98 | 1004.5 |
| 20260831043518 | 60 | 125 | 4.0 | 9.0 | 0.09 | 0.13 | 0.11 | 98 | 1004.6 |
| 20260831042518 | 60 | 125 | 5.0 | 9.0 | 0.06 | 0.09 | 0.08 | 98 | 1004.7 |
| 20260831041537 | 60 | 123 | 5.0 | 9.0 | 0.04 | 0.06 | 0.04 | 98 | 1004.8 |
| 20260831040515 | 60 | 128 | 5.0 | 8.0 | 0.03 | 0.05 | 0.03 | 98 | 1004.9 |
| 20260831035545 | 60 | 129 | 5.0 | 8.0 | 0.03 | 0.05 | 0.03 | 98 | 1004.9 |
| 20260831034544 | 60 | 135 | 5.0 | 10.0 | 0.03 | 0.05 | 0.03 | 98 | 1005.0 |
| 20260831033542 | 60 | 134 | 5.0 | 10.0 | 0.03 | 0.05 | 0.03 | 98 | 1005.1 |
| 20260831032543 | 61 | 136 | 5.0 | 11.0 | 0.01 | 0.03 | 0.01 | 97 | 1005.2 |
| 20260831031540 | 61 | 138 | 6.0 | 11.0 | 0.00 | 0.02 | 0.00 | 97 | 1005.2 |
| 20260831030539 | 61 | 140 | 5.0 | 10.0 | 0.00 | 0.02 | 0.00 | 97 | 1005.3 |
| 20260831025538 | 61 | 145 | 5.0 | 9.0 | 0.00 | 0.02 | 0.00 | 96 | 1005.4 |
| 20260831024538 | 61 | 148 | 4.0 | 9.0 | 0.00 | 0.02 | 0.00 | 96 | 1005.5 |
| 20260831023538 | 61 | 149 | 4.0 | 9.0 | 0.00 | 0.02 | 0.00 | 96 | 1005.6 |
| 20260831022536 | 61 | 142 | 4.0 | 8.0 | 0.00 | 0.02 | 0.00 | 96 | 1005.8 |
| 20260831021536 | 61 | 148 | 5.0 | 10.0 | 0.00 | 0.02 | 0.00 | 96 | 1005.8 |
| 20260831020535 | 61 | 142 | 5.0 | 11.0 | 0.00 | 0.02 | 0.00 | 96 | 1005.9 |
| 20260831015555 | 61 | 136 | 5.0 | 11.0 | 0.00 | 0.02 | 0.00 | 96 | 1005.9 |
| 20260831014533 | 61 | 132 | 5.0 | 10.0 | 0.00 | 0.02 | 0.00 | 96 | 1006.0 |
| 20260831013533 | 61 | 133 | 5.0 | 9.0 | 0.00 | 0.02 | 0.00 | 96 | 1006.1 |
| 20260831012531 | 60 | 137 | 4.0 | 9.0 | 0.00 | 0.02 | 0.00 | 97 | 1006.1 |
| 20260831011530 | 60 | 139 | 4.0 | 8.0 | 0.00 | 0.02 | 0.00 | 97 | 1006.2 |
| 20260831010529 | 60 | 129 | 4.0 | 8.0 | 0.00 | 0.02 | 0.00 | 97 | 1006.2 |
| 20260831005528 | 60 | 126 | 4.0 | 8.0 | 0.00 | 0.02 | 0.00 | 97 | 1006.3 |
| 20260831004547 | 60 | 128 | 4.0 | 8.0 | 0.00 | 0.02 | 0.00 | 97 | 1006.3 |
| 20260831003526 | 60 | 129 | 4.0 | 8.0 | 0.00 | 0.02 | 0.00 | 97 | 1006.4 |
| 20260831002525 | 61 | 133 | 4.0 | 7.0 | 0.00 | 0.02 | 0.00 | 97 | 1006.5 |
| 20260831001524 | 61 | 138 | 5.0 | 10.0 | 0.00 | 0.02 | 0.00 | 97 | 1006.6 |
| 20260831000523 | 61 | 141 | 5.0 | 10.0 | 0.00 | 0.02 | 0.00 | 97 | 1006.7 |
| 20260830235522 | 61 | 147 | 6.0 | 11.0 | 0.00 | 0.03 | 0.03 | 97 | 1006.8 |
| 20260830234521 | 61 | 154 | 5.0 | 10.0 | 0.00 | 0.04 | 0.03 | 97 | 1006.9 |
| 20260830233541 | 61 | 156 | 6.0 | 10.0 | 0.00 | 0.04 | 0.03 | 97 | 1006.9 |
| 20260830232539 | 61 | 151 | 6.0 | 13.0 | 0.00 | 0.05 | 0.03 | 97 | 1007.0 |
| 20260830231518 | 61 | 145 | 6.0 | 15.0 | 0.00 | 0.06 | 0.03 | 97 | 1007.0 |
| 20260830230517 | 61 | 140 | 6.0 | 15.0 | 0.00 | 0.06 | 0.03 | 97 | 1007.0 |
| 20260830225516 | 60 | 137 | 7.0 | 12.0 | 0.00 | 0.07 | 0.03 | 97 | 1007.0 |
| 20260830224545 | 60 | 128 | 6.0 | 10.0 | 0.01 | 0.08 | 0.03 | 98 | 1007.1 |
| 20260830223544 | 60 | 125 | 5.0 | 10.0 | 0.01 | 0.09 | 0.03 | 98 | 1007.1 |
| 20260830222544 | 60 | 126 | 6.0 | 11.0 | 0.01 | 0.09 | 0.03 | 98 | 1007.1 |
| 20260830221544 | 60 | 130 | 6.0 | 11.0 | 0.01 | 0.09 | 0.03 | 98 | 1007.2 |
| 20260830220543 | 60 | 135 | 5.0 | 10.0 | 0.01 | 0.09 | 0.03 | 98 | 1007.3 |
| 20260830215542 | 60 | 132 | 5.0 | 10.0 | 0.01 | 0.09 | 0.03 | 97 | 1007.3 |
| 20260830214541 | 60 | 122 | 6.0 | 10.0 | 0.00 | 0.08 | 0.02 | 98 | 1007.3 |
| 20260830213600 | 60 | 126 | 6.0 | 10.0 | 0.00 | 0.08 | 0.01 | 98 | 1007.5 |
| 20260830212539 | 60 | 120 | 6.0 | 9.0 | 0.00 | 0.08 | 0.01 | 98 | 1007.6 |
| 20260830211538 | 60 | 116 | 6.0 | 10.0 | 0.00 | 0.08 | 0.01 | 98 | 1007.7 |
| 20260830210537 | 60 | 121 | 5.0 | 8.0 | 0.00 | 0.08 | 0.01 | 98 | 1007.8 |
| 20260830205536 | 59 | 121 | 4.0 | 7.0 | 0.00 | 0.08 | 0.01 | 98 | 1007.9 |
| 20260830204535 | 59 | 129 | 4.0 | 7.0 | 0.00 | 0.07 | 0.01 | 97 | 1007.9 |
| 20260830203534 | 59 | 128 | 4.0 | 6.0 | 0.00 | 0.07 | 0.01 | 97 | 1008.0 |
| 20260830202533 | 59 | 121 | 4.0 | 6.0 | 0.00 | 0.07 | 0.01 | 97 | 1007.9 |
| 20260830201613 | 59 | 122 | 3.0 | 4.0 | 0.00 | 0.07 | 0.01 | 96 | 1007.9 |
| 20260830200530 | 59 | 143 | 3.0 | 5.0 | 0.00 | 0.07 | 0.01 | 96 | 1008.0 |
| 20260830195529 | 59 | 145 | 4.0 | 6.0 | 0.00 | 0.07 | 0.01 | 96 | 1008.1 |
| 20260830194528 | 59 | 143 | 4.0 | 6.0 | 0.00 | 0.07 | 0.01 | 96 | 1008.1 |
| 20260830193528 | 59 | 146 | 4.0 | 7.0 | 0.00 | 0.07 | 0.01 | 95 | 1008.1 |
| 20260830192526 | 60 | 155 | 3.0 | 6.0 | 0.00 | 0.07 | 0.01 | 95 | 1008.1 |
| 20260830191525 | 60 | 172 | 3.0 | 6.0 | 0.00 | 0.07 | 0.01 | 94 | 1008.2 |
| 20260830190524 | 60 | 170 | 5.0 | 9.0 | 0.00 | 0.07 | 0.01 | 94 | 1008.2 |
| 20260830185523 | 60 | 173 | 4.0 | 8.0 | 0.00 | 0.07 | 0.01 | 94 | 1008.2 |
| 20260830184522 | 60 | 180 | 4.0 | 8.0 | 0.00 | 0.07 | 0.01 | 93 | 1008.2 |
| 20260830183521 | 60 | 181 | 4.0 | 7.0 | 0.00 | 0.07 | 0.01 | 93 | 1008.2 |
| 20260830182540 | 60 | 181 | 4.0 | 7.0 | 0.00 | 0.07 | 0.01 | 92 | 1008.1 |
| 20260830181519 | 60 | 191 | 4.0 | 8.0 | 0.00 | 0.07 | 0.01 | 92 | 1008.1 |
| 20260830180518 | 60 | 182 | 4.0 | 8.0 | 0.00 | 0.07 | 0.01 | 92 | 1008.1 |
| 20260830175518 | 60 | 187 | 5.0 | 10.0 | 0.00 | 0.07 | 0.01 | 90 | 1008.1 |
| 20260830174517 | 61 | 194 | 6.0 | 12.0 | 0.00 | 0.07 | 0.01 | 89 | 1008.1 |
| 20260830173545 | 61 | 193 | 5.0 | 9.0 | 0.00 | 0.07 | 0.01 | 89 | 1008.1 |
| 20260830172605 | 61 | 193 | 5.0 | 9.0 | 0.00 | 0.07 | 0.01 | 88 | 1008.0 |
| 20260830171603 | 62 | 195 | 5.0 | 8.0 | 0.00 | 0.07 | 0.01 | 87 | 1008.0 |
| 20260830170604 | 62 | 204 | 6.0 | 12.0 | 0.00 | 0.07 | 0.01 | 86 | 1007.9 |
| 20260830165603 | 63 | 203 | 6.0 | 10.0 | 0.00 | 0.07 | 0.01 | 85 | 1007.9 |
| 20260830164602 | 64 | 223 | 8.0 | 15.0 | 0.00 | 0.07 | 0.01 | 80 | 1007.8 |
| 20260830163541 | 65 | 229 | 10.0 | 15.0 | 0.00 | 0.07 | 0.01 | 76 | 1007.8 |
| 20260830162600 | 65 | 201 | 8.0 | 10.0 | 0.00 | 0.07 | 0.01 | 82 | 1007.8 |
| 20260830161539 | 65 | 213 | 10.0 | 15.0 | 0.00 | 0.07 | 0.01 | 82 | 1007.7 |
| 20260830160538 | 66 | 225 | 9.0 | 13.0 | 0.00 | 0.07 | 0.01 | 76 | 1007.7 |
| 20260830155537 | 67 | 213 | 7.0 | 13.0 | 0.00 | 0.07 | 0.01 | 75 | 1007.7 |
| 20260830154536 | 67 | 219 | 8.0 | 14.0 | 0.00 | 0.07 | 0.01 | 74 | 1007.6 |
| 20260830153555 | 67 | 210 | 8.0 | 14.0 | 0.00 | 0.07 | 0.01 | 74 | 1007.6 |
| 20260830152534 | 67 | 197 | 7.0 | 12.0 | 0.00 | 0.07 | 0.01 | 76 | 1007.6 |
| 20260830151534 | 67 | 195 | 6.0 | 12.0 | 0.00 | 0.07 | 0.01 | 77 | 1007.6 |
| 20260830150532 | 66 | 201 | 7.0 | 13.0 | 0.00 | 0.07 | 0.01 | 77 | 1007.5 |
| 20260830145531 | 66 | 190 | 7.0 | 11.0 | 0.00 | 0.07 | 0.01 | 78 | 1007.5 |
| 20260830144530 | 66 | 205 | 7.0 | 13.0 | 0.00 | 0.07 | 0.01 | 78 | 1007.5 |
| 20260830143549 | 66 | 210 | 8.0 | 13.0 | 0.00 | 0.07 | 0.01 | 77 | 1007.5 |
| 20260830142528 | 66 | 216 | 9.0 | 14.0 | 0.00 | 0.07 | 0.01 | 78 | 1007.4 |
| 20260830141528 | 66 | 208 | 9.0 | 14.0 | 0.00 | 0.07 | 0.01 | 77 | 1007.5 |
| 20260830140606 | 66 | 213 | 10.0 | 15.0 | 0.00 | 0.07 | 0.01 | 78 | 1007.5 |
| 20260830135525 | 67 | 212 | 11.0 | 18.0 | 0.00 | 0.07 | 0.01 | 76 | 1007.5 |
| 20260830134544 | 67 | 203 | 9.0 | 17.0 | 0.00 | 0.07 | 0.01 | 75 | 1007.4 |
| 20260830133522 | 67 | 203 | 8.0 | 14.0 | 0.00 | 0.07 | 0.01 | 76 | 1007.4 |
| 20260830132522 | 68 | 202 | 7.0 | 14.0 | 0.00 | 0.07 | 0.01 | 74 | 1007.3 |
| 20260830131521 | 66 | 198 | 6.0 | 12.0 | 0.00 | 0.07 | 0.01 | 80 | 1007.3 |
| 20260830130520 | 66 | 193 | 7.0 | 13.0 | 0.00 | 0.07 | 0.01 | 80 | 1007.2 |
| 20260830125539 | 66 | 191 | 7.0 | 11.0 | 0.00 | 0.07 | 0.01 | 78 | 1007.2 |
| 20260830124520 | 65 | 187 | 8.0 | 17.0 | 0.00 | 0.07 | 0.01 | 79 | 1007.2 |
| 20260830123519 | 67 | 205 | 8.0 | 17.0 | 0.00 | 0.07 | 0.01 | 75 | 1007.2 |
| 20260830122518 | 66 | 202 | 9.0 | 14.0 | 0.00 | 0.07 | 0.01 | 77 | 1007.2 |
| 20260830121547 | 67 | 203 | 8.0 | 14.0 | 0.00 | 0.07 | 0.01 | 76 | 1007.1 |
| 20260830120546 | 67 | 191 | 9.0 | 14.0 | 0.00 | 0.07 | 0.01 | 76 | 1007.1 |
| 20260830115545 | 66 | 194 | 8.0 | 14.0 | 0.00 | 0.07 | 0.01 | 79 | 1007.2 |
| 20260830114544 | 65 | 198 | 8.0 | 14.0 | 0.00 | 0.07 | 0.01 | 80 | 1007.3 |
| 20260830113543 | 65 | 193 | 7.0 | 14.0 | 0.00 | 0.07 | 0.01 | 81 | 1007.3 |
| 20260830112542 | 66 | 173 | 7.0 | 13.0 | 0.00 | 0.07 | 0.01 | 81 | 1007.3 |
| 20260830111541 | 65 | 180 | 6.0 | 13.0 | 0.00 | 0.07 | 0.01 | 84 | 1007.3 |
| 20260830110540 | 64 | 174 | 5.0 | 13.0 | 0.00 | 0.07 | 0.01 | 87 | 1007.4 |
| 20260830105539 | 64 | 191 | 6.0 | 10.0 | 0.00 | 0.07 | 0.01 | 87 | 1007.3 |
| 20260830104537 | 64 | 181 | 6.0 | 10.0 | 0.00 | 0.07 | 0.01 | 87 | 1007.4 |
| 20260830103537 | 64 | 158 | 5.0 | 9.0 | 0.00 | 0.07 | 0.01 | 88 | 1007.4 |
| 20260830102536 | 63 | 151 | 4.0 | 9.0 | 0.00 | 0.07 | 0.01 | 90 | 1007.4 |
| 20260830101535 | 63 | 163 | 4.0 | 6.0 | 0.00 | 0.07 | 0.01 | 92 | 1007.4 |
| 20260830100533 | 62 | 163 | 5.0 | 9.0 | 0.00 | 0.07 | 0.01 | 93 | 1007.4 |
| 20260830095533 | 62 | 164 | 4.0 | 8.0 | 0.00 | 0.07 | 0.01 | 94 | 1007.4 |
| 20260830094532 | 62 | 153 | 5.0 | 9.0 | 0.00 | 0.07 | 0.01 | 93 | 1007.4 |
| 20260830093531 | 62 | 159 | 5.0 | 9.0 | 0.00 | 0.07 | 0.01 | 92 | 1007.3 |
| 20260830092530 | 62 | 168 | 5.0 | 8.0 | 0.00 | 0.07 | 0.01 | 92 | 1007.3 |
| 20260830091549 | 62 | 155 | 5.0 | 9.0 | 0.00 | 0.07 | 0.01 | 92 | 1007.3 |
| 20260830090528 | 62 | 163 | 5.0 | 9.0 | 0.00 | 0.07 | 0.01 | 92 | 1007.3 |
| 20260830085529 | 62 | 149 | 4.0 | 7.0 | 0.00 | 0.07 | 0.01 | 92 | 1007.3 |
| 20260830084528 | 62 | 173 | 4.0 | 7.0 | 0.00 | 0.07 | 0.01 | 92 | 1007.3 |
| 20260830083527 | 62 | 164 | 4.0 | 8.0 | 0.00 | 0.07 | 0.01 | 93 | 1007.4 |
| 20260830082526 | 61 | 158 | 5.0 | 10.0 | 0.00 | 0.07 | 0.01 | 93 | 1007.4 |
| 20260830081525 | 62 | 154 | 5.0 | 10.0 | 0.00 | 0.07 | 0.01 | 92 | 1007.3 |
| 20260830080524 | 61 | 161 | 4.0 | 8.0 | 0.00 | 0.07 | 0.01 | 92 | 1007.3 |
| 20260830075522 | 61 | 159 | 4.0 | 12.0 | 0.00 | 0.07 | 0.01 | 93 | 1007.2 |
| 20260830074541 | 61 | 170 | 4.0 | 7.0 | 0.00 | 0.07 | 0.01 | 93 | 1007.2 |
| 20260830073520 | 61 | 189 | 5.0 | 8.0 | 0.00 | 0.07 | 0.01 | 93 | 1007.2 |
| 20260830072520 | 61 | 186 | 4.0 | 9.0 | 0.00 | 0.07 | 0.01 | 93 | 1007.2 |
| 20260830071518 | 61 | 168 | 4.0 | 9.0 | 0.00 | 0.07 | 0.01 | 94 | 1007.2 |
| 20260830070517 | 61 | 168 | 4.0 | 8.0 | 0.00 | 0.07 | 0.01 | 94 | 1007.2 |
| 20260830065557 | 61 | 166 | 4.0 | 9.0 | 0.00 | 0.07 | 0.01 | 94 | 1007.1 |